Orbital Elements at Epoch 2459200.5 (2020-Dec-17.0) TDB
Reference: JPL 20 (heliocentric ecliptic J2000)
Element | Value | Uncertainty (1-sigma) | Units |
e | .1243562257547692 | 4.1881e-08 | |
a | 2.666043704981182 | 1.2481e-08 | au |
q | 2.334504572132461 | 1.1035e-07 | au |
i | 6.228157472414014 | 4.65e-06 | deg |
node | 25.24830633801224 | 3.2984e-05 | deg |
peri | 306.6243888471136 | 3.6985e-05 | deg |
M | 126.7337163205802 | 1.6927e-05 | deg |
tp | 2458640.756584793687 (2019-Jun-06.25658479) | 7.3872e-05 | TDB |
period | 1590.008052510253 4.35 | 1.1166e-05 3.057e-08 | d yr |
n | .2264139476725565 | 1.59e-09 | deg/d |
Q | 2.997582837829904 | 1.4034e-08 | au |
|
| | Orbit Determination Parameters
Additional Information
|